EW2493 Weather Reports


Display with metric or nautical units.
time (UTC)temp
F
wind
direction
speed
MPH
gust
MPH
rain 1hr
in
rain 24hr
in
rain mn
in
humidity
%
barometer
mb
20260903143045 73 109 2.0 6.0 0.00 0.02 0.00 1 997.7
20260903141543 71 92 1.0 4.0 0.00 0.02 0.00 1 997.9
20260903140035 69 16 0.0 1.0 0.00 0.02 0.00 1 997.9
20260903134532 68 269 0.0 0.0 0.00 0.02 0.00 1 998.1
20260903133028 67 269 0.0 0.0 0.00 0.02 0.00 1 998.0
20260903131523 67 32 0.0 2.0 0.00 0.02 0.00 1 997.6
20260903130023 66 336 0.0 1.0 0.00 0.02 0.00 1 997.8
20260903123012 65 66 0.0 1.0 0.00 0.02 0.00 1 997.6
20260903121510 65 66 0.0 1.0 0.00 0.02 0.00 1 997.8
20260903120001 65 89 0.0 3.0 0.00 0.02 0.00 1 997.6
20260903114602 64 91 0.0 2.0 0.00 0.02 0.00 1 997.6
20260903113058 64 47 0.0 1.0 0.00 0.02 0.00 1 997.8
20260903111550 64 50 0.0 2.0 0.00 0.02 0.00 1 998.0
20260903110047 64 57 1.0 4.0 0.00 0.02 0.00 1 998.2
20260903104540 64 51 0.0 3.0 0.00 0.02 0.00 1 998.5
20260903103036 64 344 1.0 2.0 0.00 0.02 0.00 1 998.8
20260903101542 65 40 0.0 1.0 0.00 0.02 0.00 1 998.6
20260903100032 66 35 0.0 2.0 0.00 0.02 0.00 1 998.5
20260903094523 65 57 0.0 2.0 0.00 0.02 0.00 1 998.5
20260903093019 65 9 0.0 1.0 0.00 0.02 0.00 1 998.7
20260903091515 65 339 0.0 1.0 0.00 0.02 0.00 7 998.7
20260903090011 66 348 1.0 3.0 0.00 0.02 0.00 13 998.7
20260903084520 66 13 0.0 3.0 0.00 0.02 0.00 21 998.6
20260903083003 65 326 0.0 3.0 0.00 0.02 0.00 24 999.0
20260903081502 65 102 1.0 3.0 0.00 0.02 0.00 18 998.9
20260903074604 65 68 2.0 5.0 0.00 0.02 0.00 36 998.8
20260903073055 65 359 1.0 3.0 0.00 0.02 0.00 43 999.9
20260903071554 65 40 1.0 3.0 0.00 0.02 0.00 41 1000.1
20260903070052 65 348 2.0 4.0 0.00 0.02 0.00 48 1000.4
20260903064557 66 66 1.0 5.0 0.00 0.02 0.00 52 1000.0
20260903061546 66 40 3.0 6.0 0.00 0.02 0.00 57 1000.0
20260903060047 67 40 2.0 7.0 0.00 0.02 0.00 57 1000.1
20260903054540 67 45 3.0 6.0 0.00 0.02 0.00 55 1000.3
20260903053037 67 24 3.0 6.0 0.00 0.02 0.00 51 1000.7
20260903051537 68 24 2.0 5.0 0.00 0.02 0.00 54 1000.7
20260903050032 69 29 2.0 4.0 0.00 0.02 0.00 62 1000.8
20260903044534 70 38 2.0 5.0 0.00 0.02 0.02 66 1000.9
20260903043026 70 46 0.0 2.0 0.00 0.02 0.02 68 1000.9
20260903041520 71 47 0.0 1.0 0.00 0.02 0.02 70 1001.0
20260903040019 72 69 0.0 1.0 0.00 0.02 0.02 72 1001.1
20260903034518 73 76 0.0 6.0 0.00 0.02 0.02 72 1001.2
20260903033017 73 65 0.0 5.0 0.00 0.02 0.02 72 1001.2
20260903031517 72 52 0.0 2.0 0.00 0.02 0.02 71 1001.2
20260903030015 71 66 0.0 3.0 0.00 0.02 0.02 71 1001.2
20260903024513 71 75 1.0 5.0 0.00 0.02 0.02 71 1001.3
20260903023008 71 81 1.0 6.0 0.00 0.02 0.02 71 1001.2
20260903021502 71 74 2.0 6.0 0.01 0.02 0.02 71 1001.2
20260903020058 72 65 2.0 5.0 0.01 0.02 0.02 71 1001.1
20260903014556 73 64 2.0 5.0 0.01 0.02 0.02 71 1001.1
20260903013050 73 59 1.0 5.0 0.01 0.02 0.02 71 1000.9
20260903011551 74 69 1.0 4.0 0.00 0.01 0.01 71 1001.0
20260903010044 75 75 2.0 4.0 0.00 0.01 0.01 70 1001.1
20260903004536 77 74 2.0 4.0 0.00 0.01 0.01 68 1001.1
20260903003031 78 71 4.0 8.0 0.00 0.01 0.01 65 1001.1
20260903001546 79 92 4.0 9.0 0.00 0.01 0.01 63 1001.0
20260903000025 80 69 6.0 11.0 0.00 0.01 0.01 60 1001.0
20260902234519 81 64 8.0 12.0 0.00 0.01 0.01 58 1001.1
20260902233015 81 86 5.0 12.0 0.00 0.01 0.01 57 1001.1
20260902231613 82 64 8.0 12.0 0.00 0.01 0.01 54 1001.0
20260902230006 82 74 9.0 14.0 0.00 0.01 0.01 54 1001.1
20260902224502 82 62 5.0 15.0 0.00 0.01 0.01 54 1001.2
20260902223058 82 55 9.0 13.0 0.00 0.01 0.01 52 1001.2
20260902221554 82 43 9.0 17.0 0.00 0.01 0.01 51 1001.3
20260902220055 82 91 9.0 13.0 0.00 0.01 0.01 53 1001.3
20260902214544 82 78 7.0 15.0 0.00 0.01 0.01 53 1001.4
20260902213046 82 78 9.0 16.0 0.00 0.01 0.01 51 1001.6
20260902211536 83 66 9.0 15.0 0.00 0.01 0.01 52 1001.8
20260902210032 82 83 9.0 14.0 0.00 0.01 0.01 53 1002.0
20260902204528 82 91 6.0 15.0 0.00 0.01 0.01 56 1002.3
20260902203023 82 58 6.0 16.0 0.01 0.01 0.01 57 1002.3
20260902201518 82 80 9.0 14.0 0.01 0.01 0.01 55 1002.4
20260902200015 81 59 7.0 12.0 0.01 0.01 0.01 56 1002.9
20260902194512 80 36 7.0 14.0 0.01 0.01 0.01 58 1002.7
20260902193005 79 72 8.0 13.0 0.00 0.00 0.00 59 1002.8
20260902191501 79 76 6.0 14.0 0.00 0.00 0.00 64 1002.9
20260902190125 79 49 8.0 12.0 0.00 0.00 0.00 64 1002.9
20260902184605 79 69 6.0 15.0 0.00 0.00 0.00 63 1003.3
20260902183047 78 83 9.0 14.0 0.00 0.00 0.00 63 1003.6
20260902181553 78 61 6.0 12.0 0.00 0.00 0.00 66 1003.7
20260902180041 78 64 3.0 13.0 0.00 0.00 0.00 65 1003.7
20260902174535 77 69 4.0 11.0 0.00 0.00 0.00 67 1003.8
20260902173037 77 45 5.0 11.0 0.00 0.00 0.00 67 1003.9
20260902171529 76 50 0.0 10.0 0.00 0.00 0.00 66 1004.0
20260902170123 76 55 2.0 9.0 0.00 0.00 0.00 67 1004.1
20260902164517 75 102 6.0 11.0 0.00 0.00 0.00 67 1004.1
20260902163012 74 90 6.0 12.0 0.00 0.00 0.00 70 1004.2
20260902161519 73 26 1.0 9.0 0.00 0.00 0.00 72 1004.4
20260902160006 72 63 2.0 9.0 0.00 0.00 0.00 72 1004.4
20260902154604 73 83 4.0 8.0 0.00 0.00 0.00 72 1004.3
20260902153056 72 62 5.0 10.0 0.00 0.00 0.00 72 1004.3
20260902151552 70 59 0.0 8.0 0.00 0.00 0.00 67 1004.4
20260902150046 69 78 0.0 4.0 0.00 0.00 0.00 61 1004.5
20260902144543 69 85 0.0 8.0 0.00 0.00 0.00 41 1004.7